1st Responders/1st Detectors/Storm Spotters Weather Summary for Whitley County, KY

Forecast Maps


Reg. NEXRAD Animation


National Fire Danger: Day 1 & 2 Map

Current NWS Watch/Warnings

SPC Convective Day 1 Outlook


Day 2 Outlook

(Click images to enlarge|Page will refresh every 5 minutes)
UK Ag. Weather Center Desktop Severe Weather Service[HERE]
Whitley County, KY Hazardous Weather Outlook Webcast
(9 AM to 9 PM Mon-Fri)
[Fast]
[Dial-up]


UKAWC 1st Detectors/1st Responders Precision Weather Forecast For WHITLEY County, Kentucky
(based on the NWS County Digital Forecast)

ISSUED AT 20:00 UTC ON THURSDAY APR 19 2018
DAY THURSDAY
EDT 3HR 5P 6P 7P
MAX/MIN -- -- 49°
TEMP 49° 49° 47°
SKY COVER 57% 48% 39%
Clouds
DEW PT 31° 31° 31°
RH 50% 49% 51%
POP 12HR -- -- --
RAIN/SNOW (liq.equ) -- -- --
SNOWFALL -- -- --
WIND SPEED(MPH) 10 9 7
WIND Gust(MPH) 16 13 10
WIND DIR N N N
DEW -- -- --
HeatIndex 49 49 47
Rain Showers -- -- --
Frost -- -- --
WIND CHILL -- -- --
SPRAY COND
DRY COND
LIVESTOCK COLDSTRESS
LIVESTOCK HEATSTRESS 51.70 51.75 50.18



DAY FRIDAY SATURDAY SUNDAY MONDAY TUESDAY WEDNESDAY
EDT 6HR 8P 9P 10P 11P MIDN 1A 2A 3A 4A 5A 6A 7A 8A 9A 10A 11A NOON 1P 2P 3P 4P 5P 6P 7P 8P 9P 10P 11P MIDN 1A 2A 3A 4A 5A 8A 11A 2P 5P 8P 2A 8A 2P 8P 2A 8A 2P 8P 2A 8A 2P 8P 2A 8A 2P 8P
MAX/MIN -- -- -- -- -- -- -- -- -- -- -- -- 31° -- -- -- -- -- -- -- -- -- -- 61° -- -- -- -- -- -- -- -- -- -- 36° -- -- 68° -- -- 43° 67° -- -- 47° 63° -- -- 47° 65° -- -- 47° 65° --
TEMP 45° 43° 40° 38° 36° 36° 36° 34° 34° 32° 31° 31° 34° 38° 43° 49° 52° 56° 58° 58° 61° 61° 59° 58° 56° 52° 47° 45° 43° 40° 40° 38° 38° 36° 38° 56° 65° 68° 61° 47° 45° 67° 63° 49° 47° 63° 58° 47° 47° 58° 58° 49° 49° 61° 61°
SKY COVER 30% 26% 21% 17% 13% 9% 5% 4% 2% 1% 1% 2% 2% 2% 2% 2% 2% 2% 2% 2% 1% 1% 2% 4% 5% 4% 3% 2% 2% 2% 2% 3% 3% 4% 9% 15% 21% 18% 30% 51% 64% 78% 77% 75% 66% 85% 79% 86% 78% 80% 83% 76% 74% 75% 66%
Clouds
DEW PT 31° 31° 31° 31° 31° 31° 31° 31° 31° 29° 29° 29° 29° 29° 29° 29° 29° 29° 27° 27° 25° 25° 25° 27° 27° 27° 29° 29° 29° 31° 31° 31° 29° 29° 31° 34° 38° 38° 40° 36° 38° 43° 43° 40° 43° 45° 45° 43° 45° 49° 47° 47° 47° 49° 47°
RH 55% 60% 70% 75% 81% 85% 84% 85% 88% 88% 92% 91% 85% 72% 57% 47% 39% 35% 31% 29% 26% 26% 26% 29% 32% 39% 47% 55% 59% 67% 69% 73% 72% 75% 75% 43% 35% 31% 44% 63% 75% 42% 49% 71% 85% 51% 59% 86% 89% 69% 66% 89% 89% 67% 59%
POP 12HR 1% -- -- -- -- -- -- -- -- -- -- -- 0% -- -- -- -- -- -- -- -- -- -- -- 0% -- -- -- -- -- -- -- -- -- 0% -- -- -- 2% -- 1% -- 4% -- 23% -- 36% -- 45% -- 53% -- 25% -- 40%
RAIN/SNOW (liq.equ) 0.00in -- -- -- -- -- 0.00in -- -- -- -- -- 0.00in -- -- -- -- -- 0.00in -- -- -- -- -- 0.00in -- -- -- -- -- 0.00in -- -- -- 0.00in -- 0.00in -- 0.00in -- -- -- -- -- -- -- -- -- -- -- -- -- -- -- --
SNOWFALL 0in -- -- -- -- -- 0in -- -- -- -- -- 0in -- -- -- -- -- 0in -- -- -- -- -- 0in -- -- -- -- -- 0in -- -- -- 0in -- 0in -- 0in -- -- -- -- -- -- -- -- -- -- -- -- -- -- -- --
WIND SPEED(MPH) 7 6 5 5 2 2 2 2 2 2 2 5 5 5 5 5 6 6 7 7 7 7 7 7 7 6 6 5 5 5 5 5 5 5 2 5 2 2 5 5 5 5 6 6 6 7 8 6 7 6 7 2 2 7 6
WIND DIR N N N N N N N N N N N NE NE NE NE NE NE NE NE NE NE N NE NE NE NE NE NE NE NE NE NE E E E E NW N NE NE E E E E E E E E E E E SE SW W NW
HeatIndex 45 40 38 35 34 33 33 32 31 29 28 27 29 34 41 49 52 56 58 58 61 61 59 58 56 52 47 42 40 38 36 35 34 33 35 56 65 68 61 47 42 67 63 49 47 63 58 47 47 58 58 49 49 61 61
Rain Showers -- -- -- -- -- -- -- -- -- -- -- -- -- -- -- -- -- -- -- -- -- -- -- -- -- -- -- -- -- -- -- -- -- -- -- -- -- -- -- -- -- -- -- -- Chance Chance Chance Chance Chance Chance Chance Chance Chance Chance Chance
Frost -- -- -- -- -- -- -- -- Areas of Areas of Areas of -- -- -- -- -- -- -- -- -- -- -- -- -- -- -- -- -- -- -- -- -- -- -- -- -- -- -- -- -- -- -- -- -- -- -- -- -- -- -- -- -- -- -- --
WIND CHILL 41° 39° 37° 35° -- -- -- -- -- -- -- 26° 30° 35° 40° -- -- -- -- -- -- -- -- -- -- -- -- 43° 40° 37° 37° 35° 35° 32° -- -- -- -- -- -- 43° -- -- -- -- -- -- -- -- -- -- -- -- -- --
SPRAY COND
DRY COND
LIVESTOCK COLDSTRESS
LIVESTOCK HEATSTRESS 48.42 46.48 43.10 40.86 38.38 37.88 38.01 36.05 35.64 33.77 32.22 32.38 36.05 41.20 46.74 51.86 54.28 57.00 58.30 58.31 60.10 60.10 58.92 58.31 57.05 54.28 50.44 48.42 46.56 43.41 43.21 41.09 41.20 39.13 40.86 56.88 62.78 64.51 60.32 49.40 46.90 64.38 61.82 50.56 47.97 61.87 58.18 47.91 47.71 58.14 58.15 49.59 49.59 60.60 60.50

Click on individual weather variable above in left-hand column (ie., TEMP, RH, QPF 12HR) to view state forecast maps






NWS 48 Hr. Forecast Maps,

Regional Hourly Observations For WHITLEY County, Kentucky
Issued at 500 PM EDT THU APR 19 2018
SOUTHEAST KENTUCKY
  
CITY           SKY/WX    TMP DP  RH WIND       PRES   REMARKS
JACKSON        CLOUDY    46  30  53 VRB5      30.25R                  
LONDON         CLOUDY    45  31  58 N10       30.28R                  
SOMERSET       NOT AVBL                                               
MIDDLESBORO    CLOUDY    47  31  53 N8G18     30.26R                  
MONTICELLO     CLOUDY    45  31  58 N14G20    30.32R                  


Current NOWCAST not available:
Nowcasts are not issued routinely during fair weather. Only when
precipitation or other significant weather is occuring in this county will these
forecasts be issued. Currently, there is no short term forecast in effect.


Fire Weather Forecast For WHITLEY County, KY
Provided by the National Weather Service:

Issued at: Thu Apr 19 17:05:01 EDT 2018

Pineville, Cumberland, Harlan, Prestonsburg, Wheelwright, 
Beattyville, Jackson, Hindman, Pippa Passes, Booneville, Hazard, 
Manchester, Hyden, Jenkins, Whitesburg, Coal Run, Elkhorn City, 
Pikeville, and South Williamson
429 PM EDT Thu Apr 19 2018

                      Tonight      Fri          Fri Night    Sat          

Cloud Cover           MClear       Clear        Clear        MClear       
Chance precip (%)     0            0            0            0            
Precip type           None         None         None         None         
Temp (24H TREND)      27-34 (-8)   59-64 (+14)  30-37        65-70        
Rh % (24H TREND)      75-100 (+10) 18-28 (-23)  70-100       22-32        
20ftwnd-AM(mph)                    NE 2-6                    Lgt/Var      
20ftwnd-PM(mph)       NW 2-6       N 3-7        NE 2-6       Lgt/Var      
Precip duration                                                           
Precip begin                                                              
Precip end                                                                
Precip amount         0.00         0.00         0.00         0.00         
LAL                   1            1            1            1            
Haines Index (MID)                 3                         4            
Mixing hgt(ft-AGL)                 4100                      4700         
Transport wnd (mph)                NE  8                     E  1         
Vent rate (kt-ft)                  35334                     18300        
ADI Early             3 Very Poor  31 Fair      2 Very Poor  14 Gen Poor  
ADI Late              3 Very Poor  33 Fair      3 Very Poor  13 Gen Poor  
Max LVORI Early       4            5            3            4            
Max LVORI Late        7            2            5            2            

REMARKS...ADI IS ATMOSPHERIC DISPERSION INDEX BY LAVDAS. DISPERSION        
INDEX IS MAGNITUDE OF VENT RATE DIVIDED BY 1000.


SPC's Fire Weather Web Tool (Excellent!), SPC's Fire Weather Outlooks, NWS Fire Weather WEB, Fire Danger Class Map,
Keetch-Byram Drought Index, ROMAN Web, Haines Index ,
WFAS's 10-hr Dead Fuel Moist., WFAS's 100-hr Dead Fuel Moist., Probablity of Ignition, Visual blackness Map, Palmer Drought Index, HPC's Rainfall Forecast Maps


Hazardous Weather Outlook For WHITLEY County, Kentucky
356 PM EDT Thu Apr 19 2018

   FROST ADVISORY IN EFFECT FROM 1 AM TO 10 AM EDT FRIDAY  

This hazardous weather outlook is for portions of eastern Kentucky.

 DAY ONE  Tonight.

Frost and near freezing temperatures are expected in the valleys 
late tonight into early Friday morning.

 DAYS TWO THROUGH SEVEN  Friday through Wednesday.

Frost and near freezing temperatures are likely in the valleys 
late Friday night into early Saturday morning.

 SPOTTER INFORMATION STATEMENT  

Spotter activation is not anticipated.

Latest WHITLEY County, Kentucky Watches, Warnings and Advisories.
Additional Drought Info.: UKAWC Drought Page, Kentucky Drought Watch


7-Day Forecast For WHITLEY County, KY


FROST ADVISORY IN EFFECT FROM 1 AM TO 10 AM EDT FRIDAY

TONIGHT
Mostly clear. Areas of frost late. Lows in the lower 30s. Light winds.

FRIDAY
Sunny. Areas of frost early. Highs in the lower 60s. Light winds.

FRIDAY NIGHT
Clear. Areas of frost near dawn. Lows in the mid 30s. Light winds.

SATURDAY
Sunny. Highs around 70. Light winds.

SATURDAY NIGHT
Partly cloudy in the evening then becoming mostly cloudy. Lows in the mid 40s. Light winds.

SUNDAY
Mostly cloudy with a 20 percent chance of showers. Highs in the upper 60s.

SUNDAY NIGHT
Mostly cloudy with a 50 percent chance of showers. Lows in the upper 40s.

MONDAY
Mostly cloudy with showers likely. Highs in the lower 60s. Chance of rain 60 percent.

MONDAY NIGHT
Mostly cloudy with a 50 percent chance of showers. Lows in the upper 40s.

TUESDAY
Cloudy with a 50 percent chance of showers. Highs in the upper 60s.

TUESDAY NIGHT
Mostly cloudy with a 30 percent chance of showers. Lows in the upper 40s.

WEDNESDAY
Mostly cloudy with a 50 percent chance of showers. Highs in the mid 60s.

WEDNESDAY NIGHT
Mostly cloudy with a 40 percent chance of showers. Lows in the mid 40s.

THURSDAY
Mostly sunny with a 30 percent chance of showers. Highs in the mid 60s.

Ag Weather Center, Department of Biosystems & Agricultural Engineering, University of Kentucky